Year,Month,Day,Hour,Minute,Value (Times are PST for temperature in C)
2011,02,10,00,00,-1.40
2011,02,10,00,01,-1.40
2011,02,10,00,02,-1.40
2011,02,10,00,03,-1.40
2011,02,10,00,04,-1.40
2011,02,10,00,05,-1.40
2011,02,10,00,06,-1.30
2011,02,10,00,07,-1.30
2011,02,10,00,08,-1.30
2011,02,10,00,09,-1.20
2011,02,10,00,10,-1.20
2011,02,10,00,11,-1.20
2011,02,10,00,12,-1.20
2011,02,10,00,13,-1.20
2011,02,10,00,14,-1.20
2011,02,10,00,15,-1.20
2011,02,10,00,16,-1.20
2011,02,10,00,17,-1.10
2011,02,10,00,18,-1.10
2011,02,10,00,19,-1.10
2011,02,10,00,20,-1.10
2011,02,10,00,21,-1.10
2011,02,10,00,22,-1.10
2011,02,10,00,23,-1.10
2011,02,10,00,24,-1.10
2011,02,10,00,25,-1.10
2011,02,10,00,26,-1.10
2011,02,10,00,27,-1.10
2011,02,10,00,28,-1.00
2011,02,10,00,29,-1.00
2011,02,10,00,30,-1.00
2011,02,10,00,31,-1.00
2011,02,10,00,32,-1.00
2011,02,10,00,33,-0.90
2011,02,10,00,34,-0.90
2011,02,10,00,35,-0.90
2011,02,10,00,36,-0.90
2011,02,10,00,37,-0.90
2011,02,10,00,38,-0.90
2011,02,10,00,39,-0.90
2011,02,10,00,40,-0.80
2011,02,10,00,41,-0.80
2011,02,10,00,42,-0.80
2011,02,10,00,43,-0.80
2011,02,10,00,44,-0.80
2011,02,10,00,45,-0.80
2011,02,10,00,46,-0.80
2011,02,10,00,47,-0.80
2011,02,10,00,48,-0.80
2011,02,10,00,49,-0.80
2011,02,10,00,50,-0.80
2011,02,10,00,51,-0.80
2011,02,10,00,52,-0.80
2011,02,10,00,53,-0.80
2011,02,10,00,54,-0.80
2011,02,10,00,55,-0.80
2011,02,10,00,56,-0.80
2011,02,10,00,57,-0.80
2011,02,10,00,58,-0.90
2011,02,10,00,59,-0.90
2011,02,10,01,00,-0.90
2011,02,10,01,01,-0.90
2011,02,10,01,02,-1.00
2011,02,10,01,03,-1.00
2011,02,10,01,04,-1.10
2011,02,10,01,05,-1.10
2011,02,10,01,06,-1.10
2011,02,10,01,07,-1.20
2011,02,10,01,08,-1.20
2011,02,10,01,09,-1.20
2011,02,10,01,10,-1.20
2011,02,10,01,11,-1.30
2011,02,10,01,12,-1.30
2011,02,10,01,13,-1.30
2011,02,10,01,14,-1.30
2011,02,10,01,15,-1.30
2011,02,10,01,16,-1.30
2011,02,10,01,17,-1.30
2011,02,10,01,18,-1.30
2011,02,10,01,19,-1.30
2011,02,10,01,20,-1.30
2011,02,10,01,21,-1.30
2011,02,10,01,22,-1.30
2011,02,10,01,23,-1.30
2011,02,10,01,24,-1.30
2011,02,10,01,25,-1.30
2011,02,10,01,26,-1.30
2011,02,10,01,27,-1.30
2011,02,10,01,28,-1.30
2011,02,10,01,29,-1.30
2011,02,10,01,30,-1.20
2011,02,10,01,31,-1.20
2011,02,10,01,32,-1.20
2011,02,10,01,33,-1.20
2011,02,10,01,34,-1.20
2011,02,10,01,35,-1.20
2011,02,10,01,36,-1.20
2011,02,10,01,37,-1.20
2011,02,10,01,38,-1.20
2011,02,10,01,39,-1.20
2011,02,10,01,40,-1.20
2011,02,10,01,41,-1.30
2011,02,10,01,42,-1.30
2011,02,10,01,43,-1.30
2011,02,10,01,44,-1.30
2011,02,10,01,45,-1.30
2011,02,10,01,46,-1.30
2011,02,10,01,47,-1.30
2011,02,10,01,48,-1.30
2011,02,10,01,49,-1.30
2011,02,10,01,50,-1.30
2011,02,10,01,51,-1.30
2011,02,10,01,52,-1.30
2011,02,10,01,53,-1.30
2011,02,10,01,54,-1.30
2011,02,10,01,55,-1.30
2011,02,10,01,56,-1.30
2011,02,10,01,57,-1.30
2011,02,10,01,58,-1.40
2011,02,10,01,59,-1.40
2011,02,10,02,00,-1.40
2011,02,10,02,01,-1.40
2011,02,10,02,02,-1.40
2011,02,10,02,03,-1.40
2011,02,10,02,04,-1.40
2011,02,10,02,05,-1.40
2011,02,10,02,06,-1.30
2011,02,10,02,07,-1.30
2011,02,10,02,08,-1.30
2011,02,10,02,09,-1.30
2011,02,10,02,10,-1.30
2011,02,10,02,11,-1.30
2011,02,10,02,12,-1.30
2011,02,10,02,13,-1.30
2011,02,10,02,14,-1.30
2011,02,10,02,15,-1.40
2011,02,10,02,16,-1.40
2011,02,10,02,17,-1.40
2011,02,10,02,18,-1.40
2011,02,10,02,19,-1.40
2011,02,10,02,20,-1.50
2011,02,10,02,21,-1.50
2011,02,10,02,22,-1.50
2011,02,10,02,23,-1.60
2011,02,10,02,24,-1.60
2011,02,10,02,25,-1.60
2011,02,10,02,26,-1.60
2011,02,10,02,27,-1.60
2011,02,10,02,28,-1.60
2011,02,10,02,29,-1.60
2011,02,10,02,30,-1.60
2011,02,10,02,31,-1.60
2011,02,10,02,32,-1.60
2011,02,10,02,33,-1.60
2011,02,10,02,34,-1.60
2011,02,10,02,35,-1.60
2011,02,10,02,36,-1.60
2011,02,10,02,37,-1.60
2011,02,10,02,38,-1.60
2011,02,10,02,39,-1.60
2011,02,10,02,40,-1.60
2011,02,10,02,41,-1.60
2011,02,10,02,42,-1.60
2011,02,10,02,43,-1.60
2011,02,10,02,44,-1.60
2011,02,10,02,45,-1.60
2011,02,10,02,46,-1.60
2011,02,10,02,47,-1.60
2011,02,10,02,48,-1.60
2011,02,10,02,49,-1.60
2011,02,10,02,50,-1.60
2011,02,10,02,51,-1.60
2011,02,10,02,52,-1.60
2011,02,10,02,53,-1.60
2011,02,10,02,54,-1.60
2011,02,10,02,55,-1.60
2011,02,10,02,56,-1.60
2011,02,10,02,57,-1.50
2011,02,10,02,58,-1.50
2011,02,10,02,59,-1.50
2011,02,10,03,00,-1.50
2011,02,10,03,01,-1.50
2011,02,10,03,02,-1.50
2011,02,10,03,03,-1.50
2011,02,10,03,04,-1.50
2011,02,10,03,05,-1.50
2011,02,10,03,06,-1.60
2011,02,10,03,07,-1.60
2011,02,10,03,08,-1.60
2011,02,10,03,09,-1.60
2011,02,10,03,10,-1.60
2011,02,10,03,11,-1.60
2011,02,10,03,12,-1.60
2011,02,10,03,13,-1.60
2011,02,10,03,14,-1.60
2011,02,10,03,15,-1.60
2011,02,10,03,16,-1.60
2011,02,10,03,17,-1.60
2011,02,10,03,18,-1.50
2011,02,10,03,19,-1.50
2011,02,10,03,20,-1.50
2011,02,10,03,21,-1.50
2011,02,10,03,22,-1.50
2011,02,10,03,23,-1.50
2011,02,10,03,24,-1.50
2011,02,10,03,25,-1.50
2011,02,10,03,26,-1.50
2011,02,10,03,27,-1.50
2011,02,10,03,28,-1.40
2011,02,10,03,29,-1.40
2011,02,10,03,30,-1.40
2011,02,10,03,31,-1.30
2011,02,10,03,32,-1.30
2011,02,10,03,33,-1.30
2011,02,10,03,34,-1.40
2011,02,10,03,35,-1.40
2011,02,10,03,36,-1.40
2011,02,10,03,37,-1.40
2011,02,10,03,38,-1.40
2011,02,10,03,39,-1.40
2011,02,10,03,40,-1.40
2011,02,10,03,41,-1.40
2011,02,10,03,42,-1.40
2011,02,10,03,43,-1.40
2011,02,10,03,44,-1.30
2011,02,10,03,45,-1.30
2011,02,10,03,46,-1.30
2011,02,10,03,47,-1.30
2011,02,10,03,48,-1.30
2011,02,10,03,49,-1.30
2011,02,10,03,50,-1.30
2011,02,10,03,51,-1.30
2011,02,10,03,52,-1.30
2011,02,10,03,53,-1.30
2011,02,10,03,54,-1.30
2011,02,10,03,55,-1.30
2011,02,10,03,56,-1.30
2011,02,10,03,57,-1.30
2011,02,10,03,58,-1.30
2011,02,10,03,59,-1.30
2011,02,10,04,00,-1.30
2011,02,10,04,01,-1.30
2011,02,10,04,02,-1.30
2011,02,10,04,03,-1.30
2011,02,10,04,04,-1.30
2011,02,10,04,05,-1.30
2011,02,10,04,06,-1.20
2011,02,10,04,07,-1.20
2011,02,10,04,08,-1.20
2011,02,10,04,09,-1.20
2011,02,10,04,10,-1.20
2011,02,10,04,11,-1.20
2011,02,10,04,12,-1.20
2011,02,10,04,13,-1.10
2011,02,10,04,14,-1.20
2011,02,10,04,15,-1.10
2011,02,10,04,16,-1.10
2011,02,10,04,17,-1.20
2011,02,10,04,18,-1.20
2011,02,10,04,19,-1.20
2011,02,10,04,20,-1.20
2011,02,10,04,21,-1.20
2011,02,10,04,22,-1.20
2011,02,10,04,23,-1.20
2011,02,10,04,24,-1.20
2011,02,10,04,25,-1.20
2011,02,10,04,26,-1.20
2011,02,10,04,27,-1.20
2011,02,10,04,28,-1.10
2011,02,10,04,29,-1.10
2011,02,10,04,30,-1.10
2011,02,10,04,31,-1.10
2011,02,10,04,32,-1.10
2011,02,10,04,33,-1.10
2011,02,10,04,34,-1.00
2011,02,10,04,35,-1.00
2011,02,10,04,36,-1.00
2011,02,10,04,37,-1.00
2011,02,10,04,38,-1.00
2011,02,10,04,39,-1.00
2011,02,10,04,40,-1.00
2011,02,10,04,41,-0.90
2011,02,10,04,42,-0.90
2011,02,10,04,43,-0.90
2011,02,10,04,44,-0.90
2011,02,10,04,45,-0.90
2011,02,10,04,46,-0.90
2011,02,10,04,47,-0.90
2011,02,10,04,48,-0.90
2011,02,10,04,49,-0.90
2011,02,10,04,50,-0.90
2011,02,10,04,51,-0.90
2011,02,10,04,52,-0.90
2011,02,10,04,53,-0.90
2011,02,10,04,54,-1.00
2011,02,10,04,55,-1.00
2011,02,10,04,56,-1.00
2011,02,10,04,57,-1.00
2011,02,10,04,58,-1.00
2011,02,10,04,59,-1.10
2011,02,10,05,00,-1.10
2011,02,10,05,01,-1.10
2011,02,10,05,02,-1.10
2011,02,10,05,03,-1.10
2011,02,10,05,04,-1.10
2011,02,10,05,05,-1.10
2011,02,10,05,06,-1.00
2011,02,10,05,07,-1.00
2011,02,10,05,08,-1.00
2011,02,10,05,09,-1.00
2011,02,10,05,10,-1.00
2011,02,10,05,11,-1.00
2011,02,10,05,12,-1.00
2011,02,10,05,13,-1.00
2011,02,10,05,14,-0.90
2011,02,10,05,15,-0.90
2011,02,10,05,16,-0.90
2011,02,10,05,17,-0.90
2011,02,10,05,18,-0.90
2011,02,10,05,19,-0.90
2011,02,10,05,20,-0.90
2011,02,10,05,21,-0.90
2011,02,10,05,22,-0.90
2011,02,10,05,23,-0.90
2011,02,10,05,24,-0.90
2011,02,10,05,25,-0.90
2011,02,10,05,26,-0.90
2011,02,10,05,27,-0.90
2011,02,10,05,28,-0.80
2011,02,10,05,29,-0.80
2011,02,10,05,30,-0.80
2011,02,10,05,31,-0.80
2011,02,10,05,32,-0.80
2011,02,10,05,33,-0.80
2011,02,10,05,34,-0.80
2011,02,10,05,35,-0.70
2011,02,10,05,36,-0.70
2011,02,10,05,37,-0.70
2011,02,10,05,38,-0.70
2011,02,10,05,39,-0.70
2011,02,10,05,40,-0.70
2011,02,10,05,41,-0.60
2011,02,10,05,42,-0.60
2011,02,10,05,43,-0.60
2011,02,10,05,44,-0.60
2011,02,10,05,45,-0.60
2011,02,10,05,46,-0.60
2011,02,10,05,47,-0.50
2011,02,10,05,48,-0.50
2011,02,10,05,49,-0.50
2011,02,10,05,50,-0.50
2011,02,10,05,51,-0.50
2011,02,10,05,52,-0.50
2011,02,10,05,53,-0.50
2011,02,10,05,54,-0.50
2011,02,10,05,55,-0.50
2011,02,10,05,56,-0.40
2011,02,10,05,57,-0.40
2011,02,10,05,58,-0.40
2011,02,10,05,59,-0.40
2011,02,10,06,00,-0.40
2011,02,10,06,01,-0.40
2011,02,10,06,02,-0.40
2011,02,10,06,03,-0.40
2011,02,10,06,04,-0.40
2011,02,10,06,05,-0.30
2011,02,10,06,06,-0.30
2011,02,10,06,07,-0.30
2011,02,10,06,08,-0.30
2011,02,10,06,09,-0.30
2011,02,10,06,10,-0.30
2011,02,10,06,11,-0.30
2011,02,10,06,12,-0.30
2011,02,10,06,13,-0.30
2011,02,10,06,14,-0.30
2011,02,10,06,15,-0.30
2011,02,10,06,16,-0.20
2011,02,10,06,17,-0.20
2011,02,10,06,18,-0.20
2011,02,10,06,19,-0.20
2011,02,10,06,20,-0.20
2011,02,10,06,21,-0.20
2011,02,10,06,22,-0.20
2011,02,10,06,23,-0.20
2011,02,10,06,24,-0.20
2011,02,10,06,25,-0.20
2011,02,10,06,26,-0.20
2011,02,10,06,27,-0.20
2011,02,10,06,28,-0.20
2011,02,10,06,29,-0.20
2011,02,10,06,30,-0.20
2011,02,10,06,31,-0.20
2011,02,10,06,32,-0.20
2011,02,10,06,33,-0.20
2011,02,10,06,34,-0.20
2011,02,10,06,35,-0.10
2011,02,10,06,36,-0.10
2011,02,10,06,37,-0.10
2011,02,10,06,38,-0.10
2011,02,10,06,39,-0.10
2011,02,10,06,40,-0.10
2011,02,10,06,41,-0.10
2011,02,10,06,42,-0.10
2011,02,10,06,43,-0.10
2011,02,10,06,44,-0.10
2011,02,10,06,45,-0.10
2011,02,10,06,46,-0.10
2011,02,10,06,47,-0.10
2011,02,10,06,48,-0.10
2011,02,10,06,49,-0.10
2011,02,10,06,50,-0.10
2011,02,10,06,51,-0.10
2011,02,10,06,52,-0.10
2011,02,10,06,53,-0.10
2011,02,10,06,54,-0.10
2011,02,10,06,55,-0.10
2011,02,10,06,56,-0.10
2011,02,10,06,57,0.00
2011,02,10,06,58,0.00
2011,02,10,06,59,0.00
2011,02,10,07,00,0.00
2011,02,10,07,01,0.00
2011,02,10,07,02,0.00
2011,02,10,07,03,0.10
2011,02,10,07,04,0.10
2011,02,10,07,05,0.10
2011,02,10,07,06,0.10
2011,02,10,07,07,0.10
2011,02,10,07,08,0.10
2011,02,10,07,09,0.10
2011,02,10,07,10,0.00
2011,02,10,07,11,0.00
2011,02,10,07,12,0.10
2011,02,10,07,13,0.10
2011,02,10,07,14,0.10
2011,02,10,07,15,0.10
2011,02,10,07,16,0.10
2011,02,10,07,17,0.10
2011,02,10,07,18,0.10
2011,02,10,07,19,0.10
2011,02,10,07,20,0.10
2011,02,10,07,21,0.10
2011,02,10,07,22,0.10
2011,02,10,07,23,0.10
2011,02,10,07,24,0.10
2011,02,10,07,25,0.10
2011,02,10,07,26,0.10
2011,02,10,07,27,0.10
2011,02,10,07,28,0.10
2011,02,10,07,29,0.10
2011,02,10,07,30,0.10
2011,02,10,07,31,0.10
2011,02,10,07,32,0.10
2011,02,10,07,33,0.10
2011,02,10,07,34,0.10
2011,02,10,07,35,0.10
2011,02,10,07,36,0.10
2011,02,10,07,37,0.10
2011,02,10,07,38,0.10
2011,02,10,07,39,0.10
2011,02,10,07,40,0.10
2011,02,10,07,41,0.10
2011,02,10,07,42,0.10
2011,02,10,07,43,0.10
2011,02,10,07,44,0.10
2011,02,10,07,45,0.10
2011,02,10,07,46,0.10
2011,02,10,07,47,0.10
2011,02,10,07,48,0.10
2011,02,10,07,49,0.10
2011,02,10,07,50,0.10
2011,02,10,07,51,0.10
2011,02,10,07,52,0.20
2011,02,10,07,53,0.20
2011,02,10,07,54,0.20
2011,02,10,07,55,0.20
2011,02,10,07,56,0.20
2011,02,10,07,57,0.20
2011,02,10,07,58,0.20
2011,02,10,07,59,0.20
2011,02,10,08,00,0.20
2011,02,10,08,01,0.20
2011,02,10,08,02,0.20
2011,02,10,08,03,0.20
2011,02,10,08,04,0.20
2011,02,10,08,05,0.20
2011,02,10,08,06,0.20
2011,02,10,08,07,0.20
2011,02,10,08,08,0.20
2011,02,10,08,09,0.30
2011,02,10,08,10,0.30
2011,02,10,08,11,0.30
2011,02,10,08,12,0.30
2011,02,10,08,13,0.40
2011,02,10,08,14,0.40
2011,02,10,08,15,0.40
2011,02,10,08,16,0.50
2011,02,10,08,17,0.50
2011,02,10,08,18,0.60
2011,02,10,08,19,0.60
2011,02,10,08,20,0.60
2011,02,10,08,21,0.70
2011,02,10,08,22,0.70
2011,02,10,08,23,0.70
2011,02,10,08,24,0.80
2011,02,10,08,25,0.80
2011,02,10,08,26,0.80
2011,02,10,08,27,0.90
2011,02,10,08,28,0.90
2011,02,10,08,29,0.90
2011,02,10,08,30,1.00
2011,02,10,08,31,1.00
2011,02,10,08,32,1.00
2011,02,10,08,33,1.10
2011,02,10,08,34,1.10
2011,02,10,08,35,1.20
2011,02,10,08,36,1.20
2011,02,10,08,37,1.30
2011,02,10,08,38,1.30
2011,02,10,08,39,1.30
2011,02,10,08,40,1.30
2011,02,10,08,41,1.30
2011,02,10,08,42,1.30
2011,02,10,08,43,1.30
2011,02,10,08,44,1.40
2011,02,10,08,45,1.40
2011,02,10,08,46,1.50
2011,02,10,08,47,1.50
2011,02,10,08,48,1.60
2011,02,10,08,49,1.60
2011,02,10,08,50,1.60
2011,02,10,08,51,1.60
2011,02,10,08,52,1.70
2011,02,10,08,53,1.70
2011,02,10,08,54,1.70
2011,02,10,08,55,1.70
2011,02,10,08,56,1.70
2011,02,10,08,57,1.70
2011,02,10,08,58,1.70
2011,02,10,08,59,1.70
2011,02,10,09,00,1.80
2011,02,10,09,01,1.80
2011,02,10,09,02,1.90
2011,02,10,09,03,1.90
2011,02,10,09,04,2.00
2011,02,10,09,05,2.00
2011,02,10,09,06,2.10
2011,02,10,09,07,2.10
2011,02,10,09,08,2.20
2011,02,10,09,09,2.20
2011,02,10,09,10,2.30
2011,02,10,09,11,2.30
2011,02,10,09,12,2.30
2011,02,10,09,13,2.30
2011,02,10,09,14,2.40
2011,02,10,09,15,2.40
2011,02,10,09,16,2.40
2011,02,10,09,17,2.50
2011,02,10,09,18,2.50
2011,02,10,09,19,2.60
2011,02,10,09,20,2.60
2011,02,10,09,21,2.60
2011,02,10,09,22,2.70
2011,02,10,09,23,2.70
2011,02,10,09,24,2.70
2011,02,10,09,25,2.80
2011,02,10,09,26,2.80
2011,02,10,09,27,2.80
2011,02,10,09,28,2.90
2011,02,10,09,29,2.90
2011,02,10,09,30,3.00
2011,02,10,09,31,3.00
2011,02,10,09,32,3.00
2011,02,10,09,33,3.10
2011,02,10,09,34,3.10
2011,02,10,09,35,3.20
2011,02,10,09,36,3.20
2011,02,10,09,37,3.20
2011,02,10,09,38,3.20
2011,02,10,09,39,3.30
2011,02,10,09,40,3.30
2011,02,10,09,41,3.30
2011,02,10,09,42,3.30
2011,02,10,09,43,3.30
2011,02,10,09,44,3.40
2011,02,10,09,45,3.40
2011,02,10,09,46,3.40
2011,02,10,09,47,3.40
2011,02,10,09,48,3.40
2011,02,10,09,49,3.50
2011,02,10,09,50,3.50
2011,02,10,09,51,3.50
2011,02,10,09,52,3.50
2011,02,10,09,53,3.60
2011,02,10,09,54,3.60
2011,02,10,09,55,3.60
2011,02,10,09,56,3.60
2011,02,10,09,57,3.50
2011,02,10,09,58,3.50
2011,02,10,09,59,3.50
2011,02,10,10,00,3.60
2011,02,10,10,01,3.60
2011,02,10,10,02,3.60
2011,02,10,10,03,3.60
2011,02,10,10,04,3.70
2011,02,10,10,05,3.70
2011,02,10,10,06,3.80
2011,02,10,10,07,3.90
2011,02,10,10,08,3.90
2011,02,10,10,09,4.00
2011,02,10,10,10,4.10
2011,02,10,10,11,4.20
2011,02,10,10,12,4.30
2011,02,10,10,13,4.40
2011,02,10,10,14,4.50
2011,02,10,10,15,4.50
2011,02,10,10,16,4.50
2011,02,10,10,17,4.60
2011,02,10,10,18,4.60
2011,02,10,10,19,4.70
2011,02,10,10,20,4.70
2011,02,10,10,21,4.70
2011,02,10,10,22,4.70
2011,02,10,10,23,4.70
2011,02,10,10,24,4.70
2011,02,10,10,25,4.60
2011,02,10,10,26,4.60
2011,02,10,10,27,4.60
2011,02,10,10,28,4.60
2011,02,10,10,29,4.70
2011,02,10,10,30,4.80
2011,02,10,10,31,4.80
2011,02,10,10,32,4.80
2011,02,10,10,33,4.80
2011,02,10,10,34,4.80
2011,02,10,10,35,4.80
2011,02,10,10,36,4.80
2011,02,10,10,37,4.80
2011,02,10,10,38,4.90
2011,02,10,10,39,4.80
2011,02,10,10,40,4.80
2011,02,10,10,41,4.80
2011,02,10,10,42,4.90
2011,02,10,10,43,4.90
2011,02,10,10,44,4.90
2011,02,10,10,45,4.90
2011,02,10,10,46,4.90
2011,02,10,10,47,4.90
2011,02,10,10,48,5.00
2011,02,10,10,49,5.10
2011,02,10,10,50,5.10
2011,02,10,10,51,5.10
2011,02,10,10,52,5.00
2011,02,10,10,53,5.00
2011,02,10,10,54,4.90
2011,02,10,10,55,4.90
2011,02,10,10,56,4.90
2011,02,10,10,57,4.90
2011,02,10,10,58,5.00
2011,02,10,10,59,5.00
2011,02,10,11,00,5.10
2011,02,10,11,01,5.10
2011,02,10,11,02,5.20
2011,02,10,11,03,5.20
2011,02,10,11,04,5.20
2011,02,10,11,05,5.30
2011,02,10,11,06,5.40
2011,02,10,11,07,5.40
2011,02,10,11,08,5.40
2011,02,10,11,09,5.30
2011,02,10,11,10,5.30
2011,02,10,11,11,5.30
2011,02,10,11,12,5.40
2011,02,10,11,13,5.40
2011,02,10,11,14,5.40
2011,02,10,11,15,5.40
2011,02,10,11,16,5.40
2011,02,10,11,17,5.40
2011,02,10,11,18,5.40
2011,02,10,11,19,5.40
2011,02,10,11,20,5.40
2011,02,10,11,21,5.40
2011,02,10,11,22,5.40
2011,02,10,11,23,5.40
2011,02,10,11,24,5.30
2011,02,10,11,25,5.40
2011,02,10,11,26,5.40
2011,02,10,11,27,5.40
2011,02,10,11,28,5.40
2011,02,10,11,29,5.40
2011,02,10,11,30,5.50
2011,02,10,11,31,5.50
2011,02,10,11,32,5.60
2011,02,10,11,33,5.50
2011,02,10,11,34,5.40
2011,02,10,11,35,5.40
2011,02,10,11,36,5.30
2011,02,10,11,37,5.20
2011,02,10,11,38,5.10
2011,02,10,11,39,5.20
2011,02,10,11,40,5.20
2011,02,10,11,41,5.20
2011,02,10,11,42,5.30
2011,02,10,11,43,5.20
2011,02,10,11,44,5.20
2011,02,10,11,45,5.20
2011,02,10,11,46,5.20
2011,02,10,11,47,5.20
2011,02,10,11,48,5.10
2011,02,10,11,49,5.10
2011,02,10,11,50,5.10
2011,02,10,11,51,5.10
2011,02,10,11,52,5.10
2011,02,10,11,53,5.10
2011,02,10,11,54,5.10
2011,02,10,11,55,5.10
2011,02,10,11,56,5.20
2011,02,10,11,57,5.30
2011,02,10,11,58,5.40
2011,02,10,11,59,5.40
2011,02,10,12,00,5.40
2011,02,10,12,01,5.40
2011,02,10,12,02,5.40
2011,02,10,12,03,5.40
2011,02,10,12,04,5.40
2011,02,10,12,05,5.40
2011,02,10,12,06,5.30
2011,02,10,12,07,5.30
2011,02,10,12,08,5.30
2011,02,10,12,09,5.20
2011,02,10,12,10,5.20
2011,02,10,12,11,5.10
2011,02,10,12,12,5.00
2011,02,10,12,13,5.00
2011,02,10,12,14,5.00
2011,02,10,12,15,4.90
2011,02,10,12,16,4.90
2011,02,10,12,17,4.90
2011,02,10,12,18,4.90
2011,02,10,12,19,4.80
2011,02,10,12,20,4.80
2011,02,10,12,21,4.80
2011,02,10,12,22,4.80
2011,02,10,12,23,4.80
2011,02,10,12,24,4.90
2011,02,10,12,25,4.90
2011,02,10,12,26,4.90
2011,02,10,12,27,4.90
2011,02,10,12,28,5.00
2011,02,10,12,29,5.00
2011,02,10,12,30,5.00
2011,02,10,12,31,5.00
2011,02,10,12,32,5.00
2011,02,10,12,33,5.10
2011,02,10,12,34,5.10
2011,02,10,12,35,5.20
2011,02,10,12,36,5.20
2011,02,10,12,37,5.20
2011,02,10,12,38,5.20
2011,02,10,12,39,5.20
2011,02,10,12,40,5.20
2011,02,10,12,41,5.20
2011,02,10,12,42,5.20
2011,02,10,12,43,5.20
2011,02,10,12,44,5.10
2011,02,10,12,45,5.10
2011,02,10,12,46,5.10
2011,02,10,12,47,5.10
2011,02,10,12,48,5.10
2011,02,10,12,49,5.10
2011,02,10,12,50,5.10
2011,02,10,12,51,5.10
2011,02,10,12,52,5.20
2011,02,10,12,53,5.20
2011,02,10,12,54,5.20
2011,02,10,12,55,5.20
2011,02,10,12,56,5.20
2011,02,10,12,57,5.20
2011,02,10,12,58,5.20
2011,02,10,12,59,5.20
2011,02,10,13,00,5.20
2011,02,10,13,01,5.20
2011,02,10,13,02,5.20
2011,02,10,13,03,5.20
2011,02,10,13,04,5.20
2011,02,10,13,05,5.20
2011,02,10,13,06,5.10
2011,02,10,13,07,5.10
2011,02,10,13,08,5.10
2011,02,10,13,09,5.10
2011,02,10,13,10,5.10
2011,02,10,13,11,5.20
2011,02,10,13,12,5.20
2011,02,10,13,13,5.30
2011,02,10,13,14,5.30
2011,02,10,13,15,5.30
2011,02,10,13,16,5.30
2011,02,10,13,17,5.30
2011,02,10,13,18,5.30
2011,02,10,13,19,5.30
2011,02,10,13,20,5.30
2011,02,10,13,21,5.20
2011,02,10,13,22,5.20
2011,02,10,13,23,5.20
2011,02,10,13,24,5.30
2011,02,10,13,25,5.30
2011,02,10,13,26,5.30
2011,02,10,13,27,5.30
2011,02,10,13,28,5.30
2011,02,10,13,29,5.30
2011,02,10,13,30,5.40
2011,02,10,13,31,5.40
2011,02,10,13,32,5.40
2011,02,10,13,33,5.30
2011,02,10,13,34,5.30
2011,02,10,13,35,5.30
2011,02,10,13,36,5.30
2011,02,10,13,37,5.30
2011,02,10,13,38,5.30
2011,02,10,13,39,5.30
2011,02,10,13,40,5.40
2011,02,10,13,41,5.40
2011,02,10,13,42,5.40
2011,02,10,13,43,5.50
2011,02,10,13,44,5.50
2011,02,10,13,45,5.50
2011,02,10,13,46,5.40
2011,02,10,13,47,5.40
2011,02,10,13,48,5.30
2011,02,10,13,49,5.30
2011,02,10,13,50,5.30
2011,02,10,13,51,5.30
2011,02,10,13,52,5.20
2011,02,10,13,53,5.10
2011,02,10,13,54,5.10
2011,02,10,13,55,5.10
2011,02,10,13,56,5.10
2011,02,10,13,57,5.10
2011,02,10,13,58,5.10
2011,02,10,13,59,5.10
2011,02,10,14,00,5.10
2011,02,10,14,01,5.10
2011,02,10,14,02,5.10
2011,02,10,14,03,5.10
2011,02,10,14,04,5.10
2011,02,10,14,05,5.10
2011,02,10,14,06,5.10
2011,02,10,14,07,5.10
2011,02,10,14,08,5.10
2011,02,10,14,09,5.10
2011,02,10,14,10,5.10
2011,02,10,14,11,5.10
2011,02,10,14,12,5.10
2011,02,10,14,13,5.10
2011,02,10,14,14,5.10
2011,02,10,14,15,5.10
2011,02,10,14,16,5.10
2011,02,10,14,17,5.10
2011,02,10,14,18,5.10
2011,02,10,14,19,5.10
2011,02,10,14,20,5.10
2011,02,10,14,21,5.10
2011,02,10,14,22,5.10
2011,02,10,14,23,5.10
2011,02,10,14,24,5.20
2011,02,10,14,25,5.20
2011,02,10,14,26,5.20
2011,02,10,14,27,5.20
2011,02,10,14,28,5.20
2011,02,10,14,29,5.20
2011,02,10,14,30,5.20
2011,02,10,14,31,5.20
2011,02,10,14,32,5.20
2011,02,10,14,33,5.20
2011,02,10,14,34,5.10
2011,02,10,14,35,5.20
2011,02,10,14,36,5.20
2011,02,10,14,37,5.20
2011,02,10,14,38,5.20
2011,02,10,14,39,5.20
2011,02,10,14,40,5.20
2011,02,10,14,41,5.10
2011,02,10,14,42,5.10
2011,02,10,14,43,5.10
2011,02,10,14,44,5.10
2011,02,10,14,45,5.10
2011,02,10,14,46,5.10
2011,02,10,14,47,5.10
2011,02,10,14,48,5.00
2011,02,10,14,49,5.00
2011,02,10,14,50,5.00
2011,02,10,14,51,5.00
2011,02,10,14,52,5.00
2011,02,10,14,53,5.00
2011,02,10,14,54,5.00
2011,02,10,14,55,5.00
2011,02,10,14,56,5.10
2011,02,10,14,57,5.10
2011,02,10,14,58,5.10
2011,02,10,14,59,5.10
2011,02,10,15,00,5.00
2011,02,10,15,01,5.00
2011,02,10,15,02,5.00
2011,02,10,15,03,5.00
2011,02,10,15,04,5.00
2011,02,10,15,05,5.10
2011,02,10,15,06,5.10
2011,02,10,15,07,5.10
2011,02,10,15,08,5.10
2011,02,10,15,09,5.10
2011,02,10,15,10,5.00
2011,02,10,15,11,5.00
2011,02,10,15,12,5.00
2011,02,10,15,13,5.00
2011,02,10,15,14,5.00
2011,02,10,15,15,5.10
2011,02,10,15,16,5.10
2011,02,10,15,17,5.20
2011,02,10,15,18,5.20
2011,02,10,15,19,5.20
2011,02,10,15,20,5.10
2011,02,10,15,21,5.10
2011,02,10,15,22,5.10
2011,02,10,15,23,5.10
2011,02,10,15,24,5.10
2011,02,10,15,25,5.10
2011,02,10,15,26,5.10
2011,02,10,15,27,5.10
2011,02,10,15,28,5.10
2011,02,10,15,29,5.10
2011,02,10,15,30,5.10
2011,02,10,15,31,5.10
2011,02,10,15,32,5.10
2011,02,10,15,33,5.10
2011,02,10,15,34,5.10
2011,02,10,15,35,5.20
2011,02,10,15,36,5.20
2011,02,10,15,37,5.20
2011,02,10,15,38,5.20
2011,02,10,15,39,5.20
2011,02,10,15,40,5.20
2011,02,10,15,41,5.20
2011,02,10,15,42,5.20
2011,02,10,15,43,5.20
2011,02,10,15,44,5.20
2011,02,10,15,45,5.20
2011,02,10,15,46,5.20
2011,02,10,15,47,5.20
2011,02,10,15,48,5.20
2011,02,10,15,49,5.20
2011,02,10,15,50,5.20
2011,02,10,15,51,5.10
2011,02,10,15,52,5.10
2011,02,10,15,53,5.10
2011,02,10,15,54,5.10
2011,02,10,15,55,5.10
2011,02,10,15,56,5.10
2011,02,10,15,57,5.10
2011,02,10,15,58,5.10
2011,02,10,15,59,5.10
2011,02,10,16,00,5.10
2011,02,10,16,01,5.10
2011,02,10,16,02,5.10
2011,02,10,16,03,5.10
2011,02,10,16,04,5.10
2011,02,10,16,05,5.10
2011,02,10,16,06,5.10
2011,02,10,16,07,5.10
2011,02,10,16,08,5.10
2011,02,10,16,09,5.10
2011,02,10,16,10,5.10
2011,02,10,16,11,5.10
2011,02,10,16,12,5.00
2011,02,10,16,13,5.00
2011,02,10,16,14,5.00
2011,02,10,16,15,5.00
2011,02,10,16,16,4.90
2011,02,10,16,17,4.90
2011,02,10,16,18,4.90
2011,02,10,16,19,4.80
2011,02,10,16,20,4.80
2011,02,10,16,21,4.80
2011,02,10,16,22,4.80
2011,02,10,16,23,4.80
2011,02,10,16,24,4.80
2011,02,10,16,25,4.80
2011,02,10,16,26,4.80
2011,02,10,16,27,4.80
2011,02,10,16,28,4.80
2011,02,10,16,29,4.80
2011,02,10,16,30,4.80
2011,02,10,16,31,4.80
2011,02,10,16,32,4.80
2011,02,10,16,33,4.80
2011,02,10,16,34,4.80
2011,02,10,16,35,4.80
2011,02,10,16,36,4.80
2011,02,10,16,37,4.80
2011,02,10,16,38,4.80
2011,02,10,16,39,4.80
2011,02,10,16,40,4.80
2011,02,10,16,41,4.80
2011,02,10,16,42,4.80
2011,02,10,16,43,4.80
2011,02,10,16,44,4.80
2011,02,10,16,45,4.80
2011,02,10,16,46,4.70
2011,02,10,16,47,4.70
2011,02,10,16,48,4.70
2011,02,10,16,49,4.70
2011,02,10,16,50,4.70
2011,02,10,16,51,4.70
2011,02,10,16,52,4.70
2011,02,10,16,53,4.70
2011,02,10,16,54,4.70
2011,02,10,16,55,4.70
2011,02,10,16,56,4.70
2011,02,10,16,57,4.70
2011,02,10,16,58,4.70
2011,02,10,16,59,4.70
2011,02,10,17,00,4.70
2011,02,10,17,01,4.70
2011,02,10,17,02,4.70
2011,02,10,17,03,4.70
2011,02,10,17,04,4.70
2011,02,10,17,05,4.70
2011,02,10,17,06,4.70
2011,02,10,17,07,4.70
2011,02,10,17,08,4.70
2011,02,10,17,09,4.70
2011,02,10,17,10,4.60
2011,02,10,17,11,4.60
2011,02,10,17,12,4.60
2011,02,10,17,13,4.60
2011,02,10,17,14,4.60
2011,02,10,17,15,4.60
2011,02,10,17,16,4.60
2011,02,10,17,17,4.60
2011,02,10,17,18,4.60
2011,02,10,17,19,4.60
2011,02,10,17,20,4.50
2011,02,10,17,21,4.50
2011,02,10,17,22,4.50
2011,02,10,17,23,4.50
2011,02,10,17,24,4.50
2011,02,10,17,25,4.40
2011,02,10,17,26,4.40
2011,02,10,17,27,4.40
2011,02,10,17,28,4.30
2011,02,10,17,29,4.30
2011,02,10,17,30,4.20
2011,02,10,17,31,4.20
2011,02,10,17,32,4.20
2011,02,10,17,33,4.10
2011,02,10,17,34,4.10
2011,02,10,17,35,4.10
2011,02,10,17,36,4.00
2011,02,10,17,37,4.00
2011,02,10,17,38,3.90
2011,02,10,17,39,3.90
2011,02,10,17,40,3.90
2011,02,10,17,41,3.90
2011,02,10,17,42,3.80
2011,02,10,17,43,3.80
2011,02,10,17,44,3.80
2011,02,10,17,45,3.70
2011,02,10,17,46,3.70
2011,02,10,17,47,3.70